#timestamp,LO_Frequency,Hit,StdDev 
1660050015.7,286046996.8,Y
1660050035.6,286046997.1,P
1660050055.4,286046997.3,N
1660050075.3,286046995.8,P
1660050095.1,286046994.9,Y
1660050096.0,286046994.9,P
1660050115.8,286046998.9,N
1660050135.7,286046999.4,N
1660050155.5,286046996.8,N
1660050175.4,286046996.9,N
1660050195.2,286046997.1,N
1660050215.0,286046999.1,N
1660050215.9,286046999.1,N
1660050235.8,286046997.1,N
1660050255.6,286046997.4,N
1660050275.4,286046997.3,N
1660050295.3,286046995.0,Y
1660050315.1,286046998.3,P
1660050335.9,286046998.3,P
1660050355.7,286046999.3,N
1660050375.5,286046999.6,N
1660050395.4,286046999.4,N
1660050415.2,286046999.6,N
1660050435.1,286046997.0,Y
1660050436.0,286046997.0,P
1660050455.8,286046999.5,N
1660050475.6,286046997.1,N
1660050495.5,286046999.1,N
1660050515.3,286046999.4,N
1660050535.1,286046999.5,N
1660050555.9,286046999.2,N
1660050575.7,286046996.5,Y
1660050595.6,286046999.3,P
1660050615.4,286046999.2,N
1660050635.2,286046996.6,P
1660050655.1,286046999.5,N
1660050656.0,286046999.5,N
1660050675.8,286046997.2,N
1660050695.7,286046996.7,Y
1660050715.5,286046999.1,P
1660050735.3,286046998.7,P
1660050755.2,286046998.7,P
1660050775.0,286046998.3,Y
1660050775.9,286046998.3,P
1660050795.8,286047000.9,P
1660050815.6,286047002.3,N
1660050835.4,286047000.4,N
1660050855.3,286047000.2,N
1660050875.1,286047000.2,N
1660050895.9,286046999.9,N
1660050915.7,286047000.2,N
1660050935.5,286047000.4,N
1660050955.4,286047000.6,N
1660050975.2,286047002.8,N
1660050995.0,286046999.7,N
1660050995.9,286046999.7,N
1660051015.8,286047002.3,N
1660051035.6,286047002.8,N
1660051055.5,286047002.2,N
1660051075.3,286047001.9,N
1660051095.1,286047002.2,N
1660051115.9,286047002.6,N
1660051135.7,286047000.4,N
1660051155.5,286047000.9,N
1660051175.4,286047000.9,N
1660051195.2,286047000.2,N
1660051215.1,286047002.4,N
1660051216.0,286047002.4,N
1660051235.8,286047002.3,N
1660051255.6,286047002.2,N
1660051275.5,286047001.5,N
1660051295.3,286047002.2,N
1660051315.1,286047001.9,N
1660051335.9,286047004.1,Y
1660051355.7,286047002.7,P
1660051375.6,286047002.5,P
1660051395.4,286046999.8,N
1660051415.2,286047000.2,N
1660051435.1,286047000.7,N
1660051436.0,286047000.7,N
1660051455.8,286046999.9,N
1660051475.7,286047001.0,N
1660051495.5,286046998.5,N
1660051515.3,286047001.0,N
1660051535.2,286047001.0,N
1660051555.0,286047000.5,N
1660051555.9,286047000.5,N
1660051575.7,286047001.0,N
1660051595.6,286047000.9,N
1660051615.4,286047001.2,N
1660051635.3,286046998.6,N
1660051655.1,286046998.2,N
1660051656.0,286046998.2,N
1660051675.8,286046998.8,N
1660051695.7,286046998.3,N
1660051715.5,286046998.4,N
1660051735.3,286046998.5,N
1660051755.2,286046998.4,N
1660051775.0,286046998.3,N
1660051775.9,286046998.3,N
1660051795.8,286046998.8,N
1660051815.6,286046998.3,N
1660051835.4,286046999.2,N
1660051855.3,286046998.6,N
1660051875.1,286046999.5,N
1660051895.8,286046998.7,N
1660051915.7,286046998.3,N
1660051935.5,286046999.3,N
1660051955.4,286046998.3,N
1660051975.2,286046999.4,N
1660051995.0,286046998.6,N
1660051995.9,286046998.6,N
1660052015.8,286046999.0,N
1660052035.6,286046999.4,N
1660052055.5,286046999.1,N
1660052075.3,286046998.7,N
1660052095.1,286046998.2,N
1660052115.9,286046998.2,N
1660052135.7,286046998.6,N
1660052155.5,286046998.4,N
1660052175.4,286046999.4,N
1660052195.2,286046999.6,N
1660052215.1,286046997.0,Y
1660052216.0,286046997.0,P
1660052235.8,286047001.2,N
1660052255.6,286046998.9,N
1660052275.5,286046998.4,N
1660052295.3,286047000.8,N
1660052315.1,286046998.9,N
1660052335.9,286046998.9,N
1660052355.7,286046999.3,N
1660052375.6,286046999.6,N
1660052395.4,286046996.5,Y
1660052415.2,286046998.7,P
1660052435.1,286046999.0,P
1660052436.0,286046999.0,P
1660052455.8,286046998.2,Y
1660052475.7,286047002.4,P
1660052495.5,286047000.0,N
1660052515.3,286046999.8,N
1660052535.2,286047002.4,N
1660052555.0,286046999.7,N
1660052555.9,286046999.7,N
1660052575.7,286047000.0,N
1660052595.6,286046999.9,N
1660052615.4,286047000.6,N
1660052635.3,286047000.5,N
1660052655.1,286047002.7,N
1660052656.0,286047002.7,N
1660052675.8,286047002.5,N
1660052695.7,286047002.7,N
1660052715.5,286047002.8,N
1660052735.3,286047002.0,N
1660052755.2,286047002.2,N
1660052775.0,286047001.5,N
1660052775.9,286047001.5,N
1660052795.8,286047001.3,N
1660052815.6,286047004.4,Y
1660052835.4,286046999.7,P
1660052855.3,286047000.4,N
1660052875.1,286047002.4,P
1660052895.9,286047002.0,N
1660052915.7,286047001.5,N
1660052935.5,286047001.7,N
1660052955.4,286047001.4,N
1660052975.2,286047004.0,Y
1660052995.1,286047002.3,P
1660052996.0,286047002.3,P
1660053015.8,286047001.6,P
1660053035.6,286047001.8,Y
1660053055.5,286047000.5,P
1660053075.3,286047000.6,N
1660053095.2,286047000.5,N
1660053115.9,286047002.3,Y
1660053135.7,286046999.8,P
1660053155.6,286047000.2,N
1660053175.4,286046999.9,N
1660053195.3,286047000.1,N
1660053215.1,286047000.2,N
1660053235.8,286047000.3,N
1660053255.7,286046999.7,N
1660053275.5,286046999.8,N
1660053295.9,286047000.9,N
1660053315.7,286047000.4,N
1660053335.6,286047000.3,N
1660053355.4,286047002.6,Y
1660053375.2,286047002.7,P
1660053395.1,286046999.7,N
1660053396.0,286046999.7,N
1660053415.8,286047002.8,N
1660053435.7,286047002.2,N
1660053455.5,286047001.7,N
1660053475.3,286047004.0,Y
1660053495.2,286047002.3,P
1660053515.0,286047000.1,N
1660053515.9,286047000.1,N
1660053535.8,286047002.4,N
1660053555.6,286047002.7,N
1660053575.4,286047000.2,N
1660053595.3,286047000.9,N
